Location: Calvera
(42.3882°N, 0.6137°E)
Time: 19:34:54
(UTC+00:00)

Cosmos 1892 Rocket - Pass Details

Date: 28 October 2020
Orbit: 607 x 632 km, 82.5° (Epoch: 22 November)

Event Time Altitude Azimuth Distance (km) Brightness Sun altitude
Rises 05:31:40 0° 210° (SSW) 2,856 6.7 -10.7°
Reaches altitude 10° 05:34:03 10° 220° (SW) 1,959 5.8 -10.2°
Maximum altitude 05:37:57 32° 285° (WNW) 1,054 4.2 -9.5°
Drops below altitude 10° 05:41:55 10° 349° (N) 1,985 5.9 -8.8°
Sets 05:44:21 0° 359° (N) 2,900 6.9 -8.4°
